User: anonymous   Login
Location: Unspecified
(0.0000°N, 0.0000°E)
Time: 16:48:07
(UTC+00:00)
Language:

Tiangong 1 - Orbit

View from above orbital plane
View from above orbital plane
View from above satellite
View from above satellite

Ground track
Ground track

The orbit data is extracted from the following two-line orbital elements,

1 37820U 11053A   16127.07209912  .00022985  00000-0  25984-3 0  9994
2 37820  42.7627 139.0406 0011780 112.9541 345.8185 15.61905229263996
Epoch (UTC): 06 May 2016 01:43:49
Eccentricity: 0.0011780
inclination: 42.7627°
perigee height: 374 km
apogee height: 390 km
right ascension of ascending node: 139.0406°
argument of perigee: 112.9541°
revolutions per day: 15.61905229
mean anomaly at epoch: 345.8185°
orbit number at epoch: 26399

The dashed part of the orbit path shows where the satellite is in the earth's shadow,  

DLR